Theta_e
307 307 311 310 310 298 305 305 300 302 309 305 301 302 304 303 301 298 306 303 305 310 309 311 312 313 315 319 320 321 330 334 335 335 335 334 336 339 341 340 341 343 345 352 350 350 349 349 351 351 353 355 356 358 360 362 363 363 362 363 362 362 362
309 310 311 311 311 310 307 301 304 310 311 309 303 296 300 298 295 298 303 301 303 302 299 310 310 310 312 316 319 320 323 331 333 334 334 334 333 336 338 340 341 341 345 347 353 355 353 355 355 355 355 357 358 359 359 360 362 361 361 361 360 361 362
308 311 310 308 311 312 305 304 311 304 298 297 303 300 293 293 293 296 301 304 304 305 305 308 307 308 310 314 317 319 321 328 330 328 332 336 338 337 339 342 344 345 345 347 352 351 352 353 354 354 354 356 357 359 359 361 361 362 361 360 360 362 362
306 307 306 298 303 310 310 310 306 308 304 302 299 300 301 300 295 296 297 301 300 308 309 310 310 310 312 313 315 317 320 322 333 332 333 336 337 339 341 341 343 344 346 348 349 350 349 350 352 353 356 358 354 355 360 361 363 364 363 360 362 361 361
304 297 303 301 303 302 303 303 302 304 304 306 305 305 301 298 297 296 296 296 302 309 314 313 314 313 314 314 316 320 319 321 324 326 334 334 334 337 342 340 341 342 343 346 349 348 349 349 353 354 352 351 355 356 361 361 362 362 361 360 361 361 361
297 299 304 305 305 305 304 303 302 303 301 300 297 295 305 302 298 295 296 295 305 311 315 314 314 317 314 315 316 317 320 321 325 326 331 335 335 336 336 337 337 339 342 344 347 350 351 354 352 354 353 354 354 353 359 361 362 362 361 360 360 360 360
296 301 304 306 306 306 305 306 304 306 304 304 300 293 299 303 302 304 302 299 303 314 317 317 316 317 317 317 317 317 319 322 323 325 327 333 335 334 334 337 339 340 342 343 346 350 350 348 349 349 351 351 350 353 358 357 361 362 362 361 361 362 361
299 302 304 305 306 305 303 303 305 305 301 302 301 302 304 301 302 299 299 297 302 312 321 319 317 319 318 319 318 318 318 320 322 324 326 330 336 336 335 339 343 344 342 346 349 349 349 350 349 350 351 351 351 352 355 355 359 362 363 363 362 361 360
294 296 299 300 304 304 301 300 303 306 305 304 304 303 305 299 301 302 299 294 301 310 316 318 317 316 316 317 318 319 318 320 320 322 325 327 334 336 335 336 339 343 346 346 347 347 347 347 348 349 351 352 352 350 353 354 356 362 363 363 362 361 360
284 285 286 289 294 298 301 303 303 304 303 303 301 297 302 296 303 304 300 300 307 311 318 316 317 316 317 317 318 318 319 321 319 320 321 329 332 337 337 337 339 339 343 346 347 347 348 348 347 350 352 353 351 351 353 357 359 362 363 363 362 360 360
290 293 297 299 300 299 297 299 301 302 304 304 303 302 300 296 302 300 304 306 307 310 312 314 314 315 315 315 316 317 317 319 321 329 327 322 334 337 336 336 341 342 343 344 349 349 347 346 347 350 352 351 351 351 352 352 354 360 363 363 362 361 360
295 296 296 298 298 295 298 298 299 302 302 303 302 298 295 304 300 296 306 313 306 308 311 317 320 315 316 316 319 317 318 320 318 322 331 338 327 335 336 336 343 344 345 348 350 351 348 346 346 346 350 352 353 354 354 356 358 358 362 363 363 363 361
294 295 295 296 296 296 296 296 297 297 299 299 297 298 300 301 297 295 305 311 307 309 312 316 318 319 321 318 320 320 319 320 324 334 326 323 323 332 332 336 345 341 346 346 349 350 349 346 346 348 350 351 354 355 356 359 356 359 363 363 362 361 361
293 294 295 296 295 295 295 296 298 299 299 299 300 300 302 301 301 304 304 307 306 309 312 316 318 323 322 323 328 331 331 325 330 326 331 329 328 334 337 339 341 348 346 353 355 353 351 349 350 349 351 354 352 354 358 357 359 359 362 362 361 360 360
291 293 295 295 295 294 293 296 297 297 298 298 299 299 300 302 302 304 305 305 305 311 318 318 321 323 324 326 325 325 329 331 333 331 330 333 334 336 337 341 340 345 347 354 360 364 357 354 353 352 354 354 356 356 357 358 360 360 360 361 360 361 362
288 292 293 293 294 294 293 293 294 295 295 295 297 298 301 301 301 303 304 303 304 310 314 318 319 319 321 323 323 325 327 326 330 332 330 332 335 335 336 338 342 345 343 346 344 347 349 351 356 354 358 356 355 353 356 357 358 359 359 359 358 361 364
287 292 293 292 293 292 289 290 293 296 297 298 299 300 303 303 304 302 300 302 310 312 316 317 321 320 320 321 325 325 326 329 332 332 332 333 334 334 336 338 341 343 347 350 350 342 347 348 346 347 351 352 354 356 357 358 359 358 357 358 360 362 365
287 291 292 293 289 283 284 296 299 298 296 297 296 297 300 304 304 303 306 308 310 310 321 319 319 320 321 322 325 330 329 329 328 329 331 331 332 334 336 337 340 343 346 347 349 351 355 358 350 351 352 346 351 355 354 359 357 359 360 360 361 362 365
286 290 291 287 281 284 296 299 300 301 300 300 299 299 301 304 306 306 306 307 308 310 319 321 320 323 323 324 324 325 325 326 325 326 327 329 330 333 334 336 338 342 346 349 350 351 350 354 355 350 350 351 350 353 356 354 358 362 361 362 362 362 365
291 287 286 278 281 293 297 298 300 302 301 300 300 298 301 303 305 306 305 307 309 310 314 318 320 321 322 323 324 322 322 323 323 324 325 327 328 329 332 334 337 340 342 345 346 349 355 353 352 353 348 346 345 344 350 351 353 358 362 362 364 364 366
284 287 285 285 293 291 293 294 297 301 301 304 303 297 304 307 305 306 307 308 309 310 310 313 318 320 321 321 320 321 320 320 322 323 324 326 326 328 330 332 334 339 343 345 347 354 353 354 352 350 348 347 344 342 347 349 352 354 358 363 364 364 365
291 286 283 285 284 281 288 296 305 306 309 310 310 306 303 309 312 314 313 312 314 317 318 318 319 319 317 316 316 317 320 320 321 322 323 325 326 328 329 332 334 337 340 344 349 351 352 353 354 354 349 348 346 348 345 344 347 349 353 360 364 364 365
288 287 283 282 280 285 294 302 305 308 309 310 311 303 297 308 309 312 312 311 313 313 314 316 318 316 312 313 312 315 318 319 320 321 321 323 325 327 329 330 332 334 337 341 345 350 353 352 354 354 355 353 345 348 347 342 343 346 352 358 363 364 365
287 286 284 282 287 285 295 303 305 307 309 307 306 291 293 304 308 310 310 309 311 312 312 316 318 314 310 311 311 316 318 319 320 320 320 323 324 326 328 330 332 334 338 341 344 346 349 354 356 357 354 353 351 343 343 345 344 349 354 358 363 366 366
288 287 287 288 289 295 301 302 307 307 308 303 292 287 299 306 308 309 310 309 311 311 311 314 312 314 314 314 315 317 318 318 319 320 322 322 323 324 326 327 331 333 336 339 341 345 349 355 357 358 351 350 351 347 344 348 349 351 356 360 364 368 367
286 287 286 286 290 296 301 306 305 307 299 289 288 302 306 307 306 308 310 310 310 310 311 311 313 314 316 316 315 316 316 317 318 318 319 320 321 323 325 327 329 331 334 339 342 346 350 353 356 358 357 355 353 355 349 349 353 354 358 363 365 368 367
290 288 285 284 280 298 305 304 303 307 295 298 301 305 308 308 308 307 307 308 310 310 309 312 312 314 314 314 313 314 315 316 316 317 317 317 318 319 321 323 327 331 334 337 342 346 349 353 357 360 355 353 352 357 357 355 356 359 363 364 367 369 368
285 286 284 284 294 297 304 303 296 303 304 307 307 306 305 308 308 306 307 308 307 309 309 309 311 313 313 314 313 314 314 315 316 317 317 317 317 319 321 323 326 330 333 336 339 345 351 355 359 361 357 354 354 358 361 361 359 364 367 368 369 369 367
290 288 291 298 301 301 303 305 304 306 308 309 309 308 307 307 308 309 307 307 308 309 309 309 310 311 313 313 313 313 313 314 314 314 315 315 316 317 319 321 326 329 332 334 339 349 358 362 363 364 362 360 365 365 366 365 364 369 368 368 368 368 368
297 299 300 301 302 303 303 304 307 307 308 310 309 308 306 308 309 310 307 308 307 308 309 309 309 311 313 313 314 313 313 313 313 315 315 316 318 319 320 322 324 328 332 336 345 353 356 360 365 365 366 364 367 368 370 367 370 373 369 368 367 368 367
291 288 301 300 300 301 302 303 306 309 310 309 309 308 308 308 309 309 311 310 309 308 309 309 309 311 313 313 314 313 313 313 312 313 315 316 318 319 319 321 324 327 332 336 346 351 353 358 362 367 355 363 376 376 370 369 372 373 370 368 366 367 367
291 291 297 299 301 302 303 303 303 304 306 307 308 308 309 309 310 310 310 311 309 309 308 310 309 310 312 313 313 312 312 312 312 313 316 317 318 319 320 322 324 329 332 333 343 347 351 354 358 363 362 360 368 369 366 363 370 371 368 366 366 367 366
293 297 299 298 299 301 303 303 304 303 305 305 306 308 308 309 308 309 310 311 310 310 309 310 310 310 312 313 313 312 313 313 312 314 316 318 319 319 320 322 326 330 330 330 339 344 345 348 354 352 355 355 363 369 374 368 374 369 368 363 366 366 364
289 290 292 296 290 291 296 300 302 303 304 305 305 306 307 308 308 309 309 310 311 311 311 310 311 311 312 314 314 313 313 313 313 314 316 319 319 319 321 324 327 328 328 330 337 340 340 344 345 348 348 352 355 352 349 358 375 369 368 366 367 364 363
286 293 296 297 296 295 298 300 302 303 304 305 304 305 306 306 308 309 309 309 310 311 311 312 311 312 313 314 314 314 314 314 314 315 316 318 318 319 322 324 324 325 326 329 333 337 339 340 341 341 344 346 349 352 352 349 349 363 371 367 366 365 363
295 297 297 298 296 295 298 301 302 302 304 304 304 306 307 307 307 308 308 309 309 310 311 312 314 313 314 315 315 314 316 314 316 316 318 318 320 322 323 324 322 323 324 325 328 333 337 338 338 340 341 343 346 350 354 353 349 343 344 360 365 364 364
294 299 300 300 300 299 302 302 302 303 305 305 304 304 306 307 308 310 309 309 311 311 310 311 313 315 314 314 315 315 316 316 318 317 317 318 319 321 322 323 323 324 323 324 326 330 331 332 334 337 337 337 341 345 351 357 352 347 345 340 343 357 364
Wind_Speed
15 16 13 16 13 11 8 11 14 13 9 12 10 13 17 17 12 12 6 10 12 8 11 11 13 15 18 16 15 10 20 27 25 22 22 23 20 20 18 18 19 18 17 12 14 16 16 15 17 18 15 17 18 17 19 21 20 19 19 19 18 17 16
7 10 18 15 16 15 10 11 11 11 14 13 10 10 7 11 12 9 8 12 9 10 8 12 15 16 17 17 16 17 11 23 26 24 22 20 21 20 19 18 17 19 18 18 12 10 13 11 9 11 13 16 16 17 20 22 21 21 21 20 19 17 16
5 6 12 14 16 16 17 14 4 11 10 14 11 9 11 12 12 9 10 11 12 10 7 9 16 17 17 17 18 19 17 20 22 22 21 22 21 20 18 19 17 17 18 20 15 15 16 14 14 11 13 14 15 16 20 23 24 25 24 20 19 15 17
7 9 7 11 10 18 19 15 19 16 12 10 12 11 10 8 11 9 11 13 10 8 9 11 12 16 15 16 16 20 19 13 17 16 18 20 18 17 19 19 18 19 20 21 22 20 18 18 16 12 6 4 16 19 21 22 22 21 21 20 18 18 19
11 9 7 10 10 10 12 12 15 11 10 8 11 10 15 11 9 10 9 9 9 9 6 11 11 13 13 13 11 11 16 16 16 17 19 19 19 19 19 20 20 21 21 21 21 21 19 18 13 11 9 10 9 16 20 23 24 24 24 22 21 18 17
9 9 7 12 13 14 12 12 13 13 12 12 11 11 11 14 11 7 8 10 8 9 11 13 8 5 11 14 15 13 14 16 17 14 21 18 17 19 20 21 20 20 20 20 21 20 16 11 13 14 12 10 9 11 15 22 24 23 23 22 20 18 17
11 12 12 11 15 17 17 14 13 14 12 13 11 8 10 13 14 12 12 11 9 11 9 7 11 9 13 16 16 15 14 15 18 16 19 21 19 19 19 20 21 20 19 19 19 19 16 14 12 13 12 15 16 20 20 20 23 24 23 23 20 18 17
16 20 20 18 18 14 14 16 17 12 10 10 12 12 10 12 13 14 11 13 9 10 6 14 7 12 13 9 16 16 15 15 15 17 18 19 20 19 21 21 21 20 19 19 17 15 14 14 15 15 15 15 15 19 18 17 24 25 23 21 20 19 18
8 11 12 13 12 12 10 11 14 13 11 20 16 15 12 12 15 14 11 13 8 15 9 12 6 5 11 12 10 11 14 14 15 14 14 15 18 20 22 18 17 20 19 19 16 16 17 17 15 17 15 15 19 20 17 21 20 23 21 20 21 21 21
10 8 10 10 8 9 8 11 14 14 17 17 13 13 9 8 11 15 11 9 9 11 5 9 4 8 13 10 6 12 9 12 15 15 14 8 14 20 21 20 19 23 19 16 15 15 16 17 18 19 20 22 21 15 18 16 19 22 22 21 21 21 21
10 10 10 12 13 11 10 13 16 15 15 14 14 12 12 10 11 15 13 12 9 13 8 8 10 10 8 4 10 7 12 7 8 8 10 15 7 14 20 17 14 17 16 18 18 19 18 21 19 17 19 20 20 19 20 23 22 23 21 20 18 20 21
16 19 17 15 15 15 14 15 17 16 14 14 16 9 10 13 12 13 10 9 10 11 12 10 17 6 7 6 6 7 12 10 11 6 8 3 10 14 12 12 15 18 16 16 17 17 21 21 21 21 20 20 20 19 20 17 21 22 19 19 18 18 19
18 19 21 19 17 15 16 18 18 19 16 17 15 13 14 15 9 12 13 10 13 13 15 3 7 17 9 4 8 8 9 4 3 8 2 5 10 15 15 11 13 19 17 17 17 19 18 21 21 22 20 20 17 18 19 18 20 22 18 17 18 20 18
16 16 17 17 18 15 16 17 17 18 18 17 16 17 16 17 14 18 20 17 18 14 15 7 4 11 9 9 15 17 22 13 13 13 21 14 15 18 17 17 16 8 15 13 14 17 18 20 19 21 18 16 20 20 19 20 18 18 15 17 16 18 19
14 16 17 17 17 17 18 19 19 20 18 18 17 17 17 18 19 17 18 18 16 15 6 4 6 7 10 15 18 15 15 15 19 18 14 16 16 16 16 14 12 12 4 5 4 6 12 16 16 16 15 18 18 20 19 20 18 17 18 16 17 17 17
13 13 15 16 15 18 21 21 20 19 18 18 15 15 14 14 13 15 17 13 12 13 15 10 7 5 10 15 14 13 14 16 14 13 11 13 13 14 15 14 13 13 11 8 1 8 9 11 11 5 8 13 17 18 18 19 19 19 18 17 18 15 15
13 13 14 16 17 15 17 18 18 18 18 18 17 17 17 16 14 14 13 12 10 10 10 9 10 13 11 9 10 12 14 14 12 11 12 11 12 13 13 14 14 15 14 12 11 7 6 8 8 14 16 10 10 14 14 15 16 19 19 19 16 14 14
10 14 15 14 13 16 13 8 12 16 19 19 20 18 18 17 17 13 13 12 11 14 5 7 7 8 7 8 7 9 7 10 11 12 12 12 12 12 11 12 13 13 12 11 10 10 8 6 10 9 8 13 10 10 15 13 16 15 14 14 15 16 15
11 11 13 13 16 13 10 12 12 12 14 17 21 21 22 20 18 18 18 19 19 11 2 2 4 7 6 7 9 13 13 13 12 13 12 13 14 12 11 11 11 11 11 11 10 9 10 5 9 9 11 9 9 11 8 11 14 12 13 12 14 15 14
9 11 11 12 13 12 14 15 13 14 17 19 18 21 23 21 19 17 19 20 17 15 7 3 3 6 6 7 12 12 13 13 13 14 13 14 14 15 13 12 10 10 11 11 12 12 10 11 8 8 9 10 11 13 14 16 16 14 12 12 13 15 15
13 11 13 14 11 14 15 15 11 6 7 9 7 4 10 14 16 16 14 16 17 18 20 11 6 5 5 2 8 14 14 13 13 13 14 14 14 14 15 15 14 12 12 11 12 12 13 11 11 8 10 9 12 16 15 14 10 13 14 12 13 16 16
14 13 11 10 12 13 12 12 2 4 6 9 7 6 11 7 17 16 15 15 14 15 12 9 7 9 6 5 1 12 13 14 14 12 13 14 14 14 15 15 14 14 13 14 13 13 14 15 14 11 13 13 15 13 10 11 13 16 18 15 14 16 16
12 15 13 9 9 12 5 3 3 6 4 6 9 7 11 8 17 17 14 15 12 13 14 13 8 5 6 5 5 11 13 12 12 12 13 13 14 14 14 15 16 16 16 16 16 15 15 16 16 15 15 17 17 13 13 18 17 16 16 15 15 17 17
14 15 13 12 9 8 8 4 4 3 4 7 3 12 9 11 14 14 13 12 11 11 14 14 10 7 4 6 9 12 13 11 11 12 13 14 14 14 15 15 16 17 16 16 15 16 16 16 15 14 17 15 13 12 14 16 18 18 19 17 16 16 15
13 18 13 11 10 10 2 2 5 5 6 6 4 11 2 10 11 13 11 11 11 11 13 10 8 8 7 8 10 13 14 13 12 12 13 13 14 15 16 16 17 15 15 15 16 18 16 16 19 15 14 13 12 13 16 16 19 19 17 15 13 13 14
13 14 12 13 9 5 10 8 6 3 4 10 8 4 4 7 10 13 12 10 10 11 12 11 8 8 9 9 11 12 13 13 13 14 16 16 17 17 17 17 17 15 16 17 19 19 18 18 18 16 11 10 10 11 17 19 17 16 13 13 13 13 15
8 11 14 12 13 4 9 11 8 2 8 3 2 3 5 6 7 10 11 11 10 11 11 13 14 13 12 11 12 12 12 13 14 15 17 17 18 18 19 20 20 18 17 18 19 20 19 19 18 16 14 11 11 10 14 18 17 12 11 13 13 13 14
4 8 10 6 2 7 12 9 5 3 2 3 1 2 4 4 6 7 8 9 12 14 11 12 14 14 13 12 13 13 12 13 14 14 16 17 18 20 20 20 19 21 19 18 19 20 20 18 17 17 12 9 10 11 14 14 13 10 11 12 13 13 13
5 3 3 5 4 8 10 8 3 6 2 1 3 3 4 6 5 5 6 8 10 13 14 12 13 14 12 12 13 14 13 13 15 15 17 17 17 18 19 19 20 20 18 20 21 21 17 15 15 13 9 8 9 12 11 11 11 11 12 13 13 13 13
8 12 10 10 1 5 7 10 8 2 4 1 3 5 5 6 6 5 5 8 9 11 13 12 12 12 13 13 11 12 12 12 13 14 15 17 17 19 20 20 22 21 21 21 20 18 17 17 19 12 8 8 10 9 9 10 11 11 13 13 14 14 14
9 4 7 5 8 10 11 11 7 4 4 4 5 6 5 7 8 8 6 6 8 11 12 13 13 13 13 13 10 11 10 10 12 14 14 16 16 17 19 20 20 20 19 19 18 15 14 15 14 16 9 6 3 8 9 11 10 12 12 14 13 13 14
7 8 14 12 12 13 9 5 6 4 6 6 7 7 7 8 8 9 9 7 7 9 9 10 13 15 15 13 10 10 9 9 10 11 12 14 17 18 17 17 19 18 17 19 17 15 13 13 15 13 18 5 6 3 9 12 12 11 12 14 13 14 16
10 12 7 14 17 11 4 8 8 7 8 10 10 10 10 10 10 10 11 9 9 9 10 10 11 13 13 11 10 10 9 7 9 10 11 12 14 15 18 19 19 15 17 18 17 14 12 14 12 14 13 15 10 5 2 6 8 12 12 14 14 15 15
8 6 10 15 10 8 10 12 11 12 11 11 12 11 11 10 11 9 10 11 10 11 10 10 10 11 11 12 8 9 8 6 8 10 11 11 13 15 16 13 15 16 19 17 15 14 13 12 14 12 14 13 12 12 14 14 3 12 12 14 13 15 15
7 11 13 11 12 12 12 13 12 11 12 11 12 11 11 10 10 10 10 10 11 11 11 10 10 10 9 11 8 8 6 5 6 9 11 11 12 14 15 16 17 18 19 18 16 16 13 14 13 14 13 13 12 12 9 10 14 7 8 12 10 12 12
11 9 11 12 11 11 13 14 13 12 11 11 12 12 11 12 11 11 11 11 12 11 10 11 10 9 9 10 7 7 6 5 6 7 9 10 9 11 13 12 16 16 18 18 17 15 14 12 11 11 12 13 14 13 8 8 7 7 12 9 8 10 11
6 8 10 11 13 13 11 10 11 11 10 10 11 11 12 13 12 12 12 11 11 12 11 10 10 9 9 10 9 6 4 5 6 6 9 10 11 13 12 15 15 14 14 15 14 13 13 14 13 12 13 15 15 14 12 6 5 3 5 4 14 10 10
Wind_Direction
213 205 200 208 238 239 209 215 210 223 235 237 248 264 279 293 286 266 250 227 217 218 234 227 218 221 225 226 257 235 158 167 167 173 178 180 183 180 181 188 190 186 188 186 188 189 194 189 187 194 189 186 187 181 178 182 185 185 185 184 182 180 178
253 247 192 210 207 240 267 226 213 212 227 255 252 258 253 252 260 262 253 248 242 196 228 198 219 216 217 213 220 236 234 160 164 174 175 179 178 183 181 184 185 188 191 190 179 164 171 169 170 180 199 190 187 183 183 182 184 187 189 185 183 182 178
277 261 257 212 209 216 247 254 243 207 196 212 229 259 243 247 244 256 250 257 252 236 208 179 210 215 211 215 199 220 230 164 172 167 174 168 178 181 180 187 184 186 189 190 178 181 179 171 185 190 202 207 194 188 186 185 187 188 188 185 184 182 179
287 265 214 240 256 203 208 253 266 274 291 258 219 212 258 256 262 259 243 243 249 234 255 188 200 205 216 212 200 207 223 178 175 168 162 166 176 176 177 182 188 191 193 191 189 186 186 180 182 186 158 199 212 201 190 190 190 187 188 186 182 182 183
314 270 219 235 232 243 197 215 254 254 249 284 296 235 214 228 246 249 271 248 228 242 267 272 211 186 200 214 215 206 216 201 214 172 166 173 184 181 179 186 188 190 192 190 189 191 190 187 170 161 184 191 224 220 206 197 192 190 189 190 186 184 184
265 276 276 256 253 254 243 220 231 248 247 227 235 265 243 216 225 241 250 261 279 212 194 248 282 144 196 205 218 218 213 212 205 181 173 172 184 190 190 187 187 187 189 188 186 186 177 136 123 150 160 162 191 256 234 202 195 192 190 190 188 183 185
264 266 273 274 287 303 273 247 244 233 244 240 230 248 246 231 220 234 243 270 255 295 315 259 222 198 212 198 204 213 215 224 214 203 181 180 184 190 185 178 181 185 186 186 182 178 163 151 162 169 170 178 189 206 213 213 201 194 192 190 188 182 183
286 290 290 297 292 288 299 252 254 260 273 293 279 250 257 258 235 213 223 230 255 272 333 321 199 197 212 194 185 200 210 215 230 215 196 181 175 180 182 181 181 185 183 175 175 168 165 162 166 176 188 191 197 197 201 212 209 200 192 190 187 184 185
269 258 273 280 269 271 281 279 246 243 283 270 279 317 314 274 255 253 225 230 215 249 277 283 86 88 277 261 195 188 203 205 213 230 219 197 177 172 177 188 179 159 169 179 175 172 176 178 178 185 188 194 197 205 193 202 213 205 194 189 186 185 185
247 240 232 233 243 252 274 273 268 265 263 269 279 263 245 260 272 280 285 262 219 231 248 310 290 234 207 221 190 179 235 206 201 207 226 239 173 164 174 185 175 172 173 175 177 178 178 180 185 189 191 193 198 193 195 206 207 205 195 190 189 184 185
276 279 345 336 313 321 294 302 307 306 308 315 317 296 263 246 249 255 255 273 301 296 248 230 238 275 277 344 325 293 166 224 209 205 206 208 181 168 177 175 157 163 169 178 177 177 181 187 186 184 184 184 192 194 197 199 208 209 194 191 186 183 185
267 282 289 300 316 290 290 290 286 291 286 285 276 294 312 325 302 266 261 259 266 264 290 21 348 257 203 272 293 293 292 196 210 154 62 159 179 168 169 157 151 161 169 175 179 177 182 188 193 193 189 193 194 192 195 197 203 203 196 191 185 183 186
269 273 284 289 288 288 289 293 294 289 293 296 298 310 296 294 298 291 300 316 264 267 272 9 30 346 10 351 300 295 277 357 37 346 142 157 217 171 158 157 153 168 172 180 183 182 186 191 195 192 190 193 189 198 198 190 203 204 192 188 187 185 186
276 276 273 275 277 281 277 271 272 278 278 275 280 276 277 279 286 292 277 278 285 292 300 306 354 352 359 10 11 24 6 34 22 27 31 22 63 49 40 37 11 168 172 173 186 185 188 193 192 192 190 188 191 197 196 190 197 202 182 188 187 187 189
267 269 270 273 273 274 272 265 264 269 274 278 275 279 283 282 274 285 268 257 269 274 287 330 340 350 341 12 26 17 13 9 23 25 33 30 33 39 30 29 40 23 24 136 135 187 195 198 192 194 186 189 192 197 194 197 195 197 188 185 186 186 189
266 264 263 260 260 260 261 260 259 261 268 267 262 259 255 262 270 266 271 277 275 275 272 244 283 304 354 46 0 15 10 356 8 20 10 23 20 23 25 22 25 33 34 28 56 80 28 353 328 253 210 187 191 195 198 197 197 198 194 186 189 187 183
260 269 268 258 255 258 254 251 252 255 255 259 270 269 265 262 263 257 256 258 261 294 329 330 360 13 359 15 20 23 355 341 360 16 19 10 12 14 14 17 14 19 10 5 7 15 149 161 203 247 270 264 207 196 200 200 195 199 197 190 184 182 181
269 275 275 280 271 249 248 262 253 242 245 250 251 253 253 251 250 260 271 273 285 283 355 5 14 25 28 12 7 58 20 355 358 5 11 10 0 4 16 11 6 8 353 353 344 335 323 307 236 215 219 223 246 197 217 200 203 198 198 190 178 180 180
254 259 264 260 250 251 270 273 276 280 271 255 251 255 253 248 251 258 258 255 254 273 112 12 31 11 12 15 356 43 25 11 4 356 4 6 356 353 2 4 357 352 340 333 332 320 310 334 293 249 221 222 240 227 219 225 205 196 196 196 178 178 177
262 250 243 251 252 269 272 277 290 292 286 278 282 252 242 247 252 257 260 264 259 274 244 133 35 356 353 57 54 43 29 14 8 356 357 357 354 349 346 344 340 337 332 330 316 312 307 293 282 266 256 231 235 236 205 216 213 207 197 196 177 175 176
244 242 239 244 267 263 255 257 259 335 332 344 30 347 311 288 257 252 276 288 290 277 280 285 354 299 320 38 80 32 28 10 11 355 352 347 347 341 336 335 331 324 315 306 312 311 303 302 287 267 274 243 233 224 194 217 228 218 210 195 182 178 180
252 249 246 244 243 251 249 248 317 277 331 328 360 301 277 335 2 13 9 347 346 351 338 330 324 329 297 270 148 15 8 1 8 352 355 342 342 338 333 329 323 320 320 323 319 318 311 303 291 273 252 244 216 225 207 202 211 197 213 202 189 180 182
269 254 247 241 252 252 281 80 4 348 346 316 310 269 257 31 358 2 1 2 356 350 344 331 336 299 297 270 49 355 358 354 359 352 350 344 338 336 332 328 323 325 322 316 307 299 290 279 274 268 261 246 232 208 195 198 210 207 209 200 190 184 183
243 249 244 240 228 245 240 90 8 347 13 345 311 240 225 19 352 354 2 3 356 346 337 338 353 357 337 351 356 338 341 349 352 354 347 344 338 335 332 329 331 321 311 302 300 297 293 289 273 247 247 242 233 215 217 202 203 205 200 199 192 185 179
244 245 246 252 254 239 293 101 303 10 342 305 241 242 2 349 352 345 358 357 358 350 337 349 350 18 358 343 341 331 332 345 351 352 350 345 341 335 335 332 328 318 312 307 302 298 293 288 290 276 248 237 224 206 214 217 206 202 198 192 183 176 176
229 237 239 239 248 57 346 344 325 33 299 237 258 25 329 333 351 355 350 349 355 343 343 335 337 335 329 342 339 339 338 344 345 349 348 346 346 341 336 331 328 322 315 310 304 297 291 287 282 270 249 242 233 212 205 211 207 203 189 177 175 173 176
226 222 234 234 240 79 360 333 257 338 268 355 142 289 314 336 336 352 346 348 348 340 336 333 329 329 335 343 335 340 341 345 350 352 350 348 344 340 336 332 329 326 318 311 304 299 294 290 283 278 252 230 236 232 208 199 199 195 171 170 170 168 173
255 224 227 230 14 318 332 356 297 309 21 21 36 331 280 325 337 344 337 341 342 329 318 325 322 317 314 332 336 340 346 349 352 353 350 347 345 342 335 329 326 326 319 310 304 296 292 285 282 277 254 223 229 224 211 196 187 172 159 161 162 164 170
296 306 319 327 342 310 310 317 264 253 214 225 323 322 286 296 301 324 323 329 328 334 326 320 315 313 314 321 332 342 348 354 354 353 349 342 340 335 332 326 323 321 317 310 302 299 296 287 275 274 249 228 229 213 202 179 170 158 156 156 160 162 171
300 278 267 281 307 258 284 281 338 307 276 230 267 303 309 286 280 292 304 304 317 319 321 316 310 311 314 310 320 343 347 356 350 346 344 337 335 333 332 330 328 321 315 312 308 312 324 340 331 266 224 230 222 207 179 167 159 151 153 156 160 164 170
326 273 157 329 337 317 307 303 255 233 299 301 294 291 293 294 288 282 276 280 297 304 306 310 308 305 307 310 331 345 340 359 353 345 340 335 329 328 327 322 319 321 319 315 319 321 326 339 338 343 286 194 185 175 164 160 149 147 153 157 160 163 169
293 297 321 326 333 317 322 23 316 331 329 320 301 296 290 291 293 283 281 277 279 287 292 301 311 311 308 311 321 329 344 3 349 340 336 332 332 331 326 317 318 318 325 325 323 338 338 345 347 354 358 311 139 160 163 167 144 147 152 161 162 166 173
298 296 304 344 328 304 104 6 351 333 323 322 314 296 294 292 292 290 284 272 270 270 284 298 302 302 303 311 329 328 334 360 346 338 330 331 332 328 328 325 321 327 329 323 322 348 357 354 358 3 3 0 357 0 265 189 137 152 154 164 165 171 175
319 339 328 333 326 318 317 323 327 324 319 305 307 304 295 299 292 295 298 293 277 270 275 290 294 298 308 308 323 315 325 2 343 333 331 333 337 330 325 311 319 335 334 320 327 357 358 354 356 2 5 3 4 11 4 340 260 160 157 167 169 179 180
303 313 317 318 305 294 290 306 317 312 314 309 301 303 303 298 295 294 294 293 284 270 268 277 279 284 296 303 312 310 344 5 334 332 331 335 338 327 323 331 343 342 334 330 339 352 358 360 1 4 7 8 7 8 1 18 0 323 173 165 175 182 186
290 309 323 311 299 294 303 309 311 310 306 304 301 299 296 291 282 282 279 277 282 278 270 273 276 281 289 299 307 315 340 343 324 325 329 332 322 322 328 339 341 336 339 339 343 346 350 353 354 353 2 9 8 354 13 360 40 35 323 295 202 189 197
300 314 308 304 299 297 298 307 307 307 309 314 309 299 295 293 291 284 275 271 269 272 267 264 277 283 288 291 297 299 325 332 323 334 334 327 343 343 335 337 339 336 341 341 340 347 350 352 354 5 10 8 2 356 2 17 28 93 106 357 303 280 223